Simultaneous Nadir Overpasses (SNOs) Predictions

Prediction of SNOs between NOAA-19 and NPP Satellite Orbit:

Table of predicted SNOs for the next 14.0 days since TLE Epoch: 8/9/2014
Index Date (NOAA-19) Time (NOAA-19) Lat,Lon (NOAA-19) SZA (NOAA-19 ) Date (NPP) Time (NPP) Lat,Lon (NPP) SZA (NPP ) Distance(km) Time Diff (sec)
1 08/19/2014 07:40:46 -80.99,-167.70 108.04 08/19/2014 07:41:45 -80.99,-167.76 108.06 1.03 59
2 08/19/2014 08:31:44 80.99, -0.20 71.94 08/19/2014 08:32:30 80.99, -0.38 71.94 3.15 46
3 08/19/2014 09:22:49 -80.99, 166.97 108.04 08/19/2014 09:23:15 -80.99, 166.88 108.04 1.62 26
4 08/19/2014 10:13:48 80.99, -25.89 71.99 08/19/2014 10:14:00 80.99, -25.74 71.96 2.71 12
5 08/19/2014 11:04:51 -80.97, 142.01 108.10 08/19/2014 11:04:44 -80.98, 141.88 108.08 2.25 7
6 08/19/2014 11:55:50 80.98, -50.84 71.93 08/19/2014 11:55:29 80.97, -50.73 71.93 2.01 21
7 08/19/2014 12:46:54 -80.97, 116.68 108.10 08/19/2014 12:46:14 -80.97, 116.52 108.06 2.87 40
8 08/19/2014 13:37:52 80.97, -76.17 71.93 08/19/2014 13:36:58 80.97, -76.09 71.95 1.31 54




NCC Satellite Simultaneous Nadir Overpasses (SNOs) Prediction Service
